RH
96 94 97 92 87 86 80 66 68 68 79 83 76 71 65 44 50 67 69 69 74 63 58 33 38 38 39 41 44 46 48 48 50 52 53 55 58 60 67 76 81 84 85
75 91 98 100 94 91 93 88 72 72 72 81 80 76 70 61 39 66 64 71 78 70 58 42 32 40 41 42 45 47 48 47 48 48 52 58 66 80 85 84 84 87 89
57 63 85 100 100 95 91 96 95 91 83 82 84 82 76 70 62 57 63 64 74 72 64 52 33 34 41 42 42 45 46 47 46 47 51 71 83 90 88 84 83 80 84
29 44 56 65 91 100 100 99 98 94 92 87 85 84 82 75 75 75 67 64 69 64 63 55 46 32 34 41 42 42 42 42 43 45 50 72 88 89 84 78 79 78 79
21 28 34 50 58 71 96 100 95 88 87 89 87 87 88 76 78 82 79 73 72 65 56 52 47 42 34 33 40 42 41 40 40 41 45 81 93 92 77 77 79 77 75
18 21 24 29 38 55 60 71 93 99 90 82 83 90 93 86 78 80 83 78 74 69 62 50 51 45 40 34 32 33 36 36 37 40 41 51 68 71 75 80 74 68 71
37 27 24 30 29 34 44 52 49 61 87 94 90 99 98 100 94 86 81 82 75 69 67 60 51 47 41 37 33 31 31 34 36 37 39 41 60 67 71 72 68 68 68
50 43 36 33 30 28 30 35 40 44 50 72 92 99 100 100 97 96 88 86 80 74 68 66 62 50 43 42 38 35 35 34 35 38 39 42 51 67 70 72 65 65 66
62 55 44 36 35 41 48 42 37 42 41 41 50 76 94 98 95 88 93 84 80 76 73 72 68 64 52 44 48 43 35 34 33 35 36 39 44 61 68 73 69 64 63
68 64 62 55 47 43 39 49 56 46 48 55 41 48 72 78 88 90 85 88 84 77 72 74 73 70 66 56 49 47 38 30 31 35 37 40 45 49 63 66 68 61 64
67 67 65 62 56 54 50 64 69 67 63 78 75 57 56 73 84 82 74 74 74 75 74 72 76 77 74 70 59 46 38 37 42 35 36 42 47 50 54 68 72 64 55
75 71 69 65 60 53 56 53 54 76 74 68 68 76 78 86 99 95 86 80 73 69 68 69 73 74 72 74 72 60 54 38 38 48 44 42 46 52 57 63 76 71 63
80 80 74 70 64 60 52 50 54 55 68 77 74 70 66 76 81 76 77 83 86 76 72 67 71 68 71 70 67 66 65 41 45 55 56 54 51 53 55 61 70 92 88
69 80 84 80 70 64 62 63 60 59 59 66 70 72 69 68 78 86 86 80 93 88 80 75 78 67 69 69 70 65 60 57 54 54 56 65 63 64 66 63 64 76 82
72 72 77 82 76 73 68 73 67 66 66 60 69 69 73 78 75 82 82 89 87 94 92 90 79 75 72 70 64 68 70 66 56 64 70 74 71 77 76 72 68 71 78
64 62 73 86 82 80 78 80 81 72 71 64 60 71 75 75 76 81 84 89 95 93 100 92 86 74 67 70 70 68 67 63 68 78 79 69 71 83 84 76 71 66 69
72 66 73 84 84 82 86 88 82 78 77 74 68 73 79 72 68 72 69 76 92 99 100 98 96 85 70 63 67 68 74 79 79 79 80 69 76 86 94 83 69 61 63
76 77 78 82 85 83 78 86 82 78 74 75 76 75 70 72 74 74 72 72 73 86 89 95 78 78 73 75 77 71 79 90 89 88 84 84 80 70 63 82 85 71 63
80 77 81 81 83 76 77 77 73 71 76 76 76 70 79 73 72 70 77 82 75 74 78 91 85 78 68 80 82 72 70 77 87 87 87 93 82 75 66 65 61 72 76
80 72 83 79 80 66 76 77 71 65 68 68 65 70 67 68 74 70 70 90 94 98 98 100 99 95 90 99 94 91 90 88 89 88 90 90 87 82 84 84 62 81 71
85 77 82 85 76 81 83 70 71 72 71 70 67 66 74 76 72 77 84 87 93 98 97 97 94 86 93 98 94 96 87 88 94 95 100 98 97 98 97 97 90 79 72
97 90 92 92 77 74 70 67 61 59 61 62 75 77 77 78 77 81 84 85 86 92 97 98 99 99 98 99 87 85 90 97 100 93 83 76 80 75 83 81 81 84 89
99 96 85 84 87 92 87 75 72 74 79 69 73 77 77 79 88 87 88 93 95 91 92 92 96 99 100 100 99 94 94 96 97 97 98 85 90 96 83 88 83 87 98
100 99 99 100 100 93 86 87 87 88 86 81 81 81 80 86 89 86 89 91 84 96 100 100 100 100 100 98 100 100 99 98 100 97 100 100 98 95 91 95 98 98 99
98 97 97 100 99 99 91 84 83 82 86 88 90 97 99 98 94 88 100 100 98 100 97 96 100 100 100 100 98 100 100 98 98 100 100 100 98 99 98 97 97 98 100
98 99 99 99 98 100 100 91 86 85 99 100 100 99 95 99 99 99 100 100 94 100 100 100 100 100 100 100 100 100 100 100 100 100 99 100 99 100 98 92 86 86 88
Wind_Speed
24 26 27 27 27 25 26 27 26 26 25 23 21 20 19 22 24 22 19 17 14 16 15 14 16 15 14 13 12 10 9 8 9 8 8 8 7 6 7 8 10 11 11
24 25 27 30 29 29 27 28 29 29 28 26 25 23 22 20 25 25 22 21 18 18 16 16 16 17 16 16 15 13 12 11 11 10 10 9 7 8 9 10 10 11 10
27 27 27 28 33 31 32 31 31 31 31 30 30 28 26 26 22 27 26 24 21 22 20 18 18 18 18 18 17 16 15 13 13 13 12 11 11 12 12 12 12 12 12
34 32 31 30 29 32 34 35 36 36 34 33 32 31 29 29 27 25 28 27 25 25 24 22 21 21 20 20 20 19 17 15 14 15 14 14 13 12 13 14 13 12 13
42 40 37 36 32 33 32 37 39 38 37 36 36 34 32 30 28 28 29 29 27 29 27 25 24 23 23 23 22 22 20 18 17 16 16 15 14 14 14 14 13 12 11
41 42 44 43 39 37 36 35 37 40 39 38 36 38 37 35 31 29 30 30 31 30 29 26 26 26 25 25 26 25 23 21 20 18 18 17 15 15 15 14 13 11 10
41 43 45 44 46 45 43 40 37 37 38 38 39 40 41 40 40 36 32 33 33 32 30 28 27 27 28 26 26 27 27 26 24 21 20 20 18 17 16 15 14 12 11
40 42 45 47 47 47 47 47 44 41 40 38 36 31 25 38 42 40 41 37 37 34 33 32 30 29 28 28 27 27 26 26 25 25 24 23 21 19 18 17 16 15 13
35 36 39 42 46 48 45 46 47 46 45 43 40 35 17 14 23 40 44 40 41 39 37 34 35 34 31 30 29 27 28 27 26 26 25 24 24 22 20 19 19 17 16
32 33 35 36 38 41 46 46 45 47 44 45 45 42 41 29 15 14 33 43 41 41 39 40 38 38 36 34 32 29 27 25 29 27 27 25 25 25 23 21 21 20 19
30 31 33 36 39 41 44 42 42 44 45 44 43 42 41 44 42 31 23 25 33 42 40 44 44 41 40 39 35 32 28 26 29 28 29 28 27 26 25 24 23 21 20
31 32 30 31 36 41 43 44 46 41 44 46 44 43 41 36 37 38 35 32 32 33 32 36 40 36 37 39 38 36 32 29 32 30 31 30 29 28 28 26 24 24 23
34 32 30 31 32 34 38 42 45 45 45 44 43 44 45 45 43 37 41 39 35 36 36 36 33 33 35 33 31 33 37 34 33 33 33 32 32 32 31 29 28 25 25
31 29 30 30 31 32 34 37 40 42 44 43 45 44 43 44 44 43 42 41 36 36 36 38 33 38 35 31 35 31 32 36 36 33 33 34 35 34 34 32 32 30 28
29 29 29 30 30 31 31 36 38 40 40 43 43 44 41 40 40 43 43 44 42 30 34 40 40 41 38 36 33 34 36 35 33 34 36 35 34 35 35 35 34 34 33
24 26 27 27 28 28 30 35 38 37 38 39 41 40 40 40 38 38 38 39 41 42 36 30 31 32 31 30 31 29 32 33 34 38 37 37 35 35 35 37 36 36 37
19 23 24 25 27 31 30 32 36 36 36 36 38 39 39 39 38 37 36 35 34 37 40 38 35 34 36 37 35 37 38 41 37 38 32 38 37 37 38 38 38 37 41
20 20 21 22 23 27 30 30 33 32 35 35 36 35 37 34 36 36 36 36 33 35 38 40 40 38 36 32 35 31 37 38 40 41 41 42 41 34 36 38 36 36 40
17 15 17 20 22 24 28 24 28 30 31 32 32 33 33 32 33 34 36 37 37 37 38 39 38 42 40 36 28 31 35 33 38 38 40 43 42 47 47 40 37 40 39
15 12 12 15 17 15 16 16 21 25 27 28 28 29 28 28 28 29 31 31 33 33 34 37 38 38 36 36 35 35 36 33 35 35 36 36 42 43 48 50 48 48 45
12 10 11 13 15 17 21 23 21 22 24 26 26 27 29 28 27 28 28 29 30 29 31 34 35 33 35 35 35 33 38 33 34 36 41 41 43 47 50 48 48 53 53
12 10 12 14 15 18 20 21 23 25 25 26 27 29 28 28 26 27 28 28 27 30 29 31 32 33 30 35 34 40 37 38 39 40 34 39 38 38 38 38 39 43 49
12 12 12 14 16 18 21 22 24 25 24 26 26 26 26 27 27 27 26 26 25 27 29 29 32 33 34 31 35 32 31 35 41 36 33 41 39 40 35 38 36 38 39
11 14 15 16 16 18 23 25 25 25 26 27 27 27 27 28 27 27 27 27 26 27 30 34 40 40 35 37 39 37 32 35 36 38 37 41 44 47 42 43 38 39 38
10 13 19 17 15 18 23 25 27 29 30 29 29 27 26 29 30 28 26 26 27 25 30 31 34 38 40 38 36 33 31 31 26 28 31 32 33 34 35 35 35 35 34
9 9 7 9 14 17 19 20 19 18 19 25 26 28 28 28 27 25 24 21 21 23 22 18 19 28 27 25 25 23 18 17 14 14 17 19 21 20 21 28 29 28 28
Wind_Direction
256 254 250 247 245 245 243 241 241 239 239 236 235 235 232 224 227 234 237 238 250 254 260 252 240 232 230 235 237 244 254 263 273 280 286 294 300 303 317 325 324 326 325
258 257 250 248 244 242 248 247 243 243 242 240 240 239 236 230 224 232 240 240 244 254 255 253 246 241 237 239 243 245 251 260 269 276 282 289 292 301 311 318 318 321 319
254 260 260 254 246 246 245 248 248 246 244 242 244 244 239 233 227 230 239 241 243 252 255 254 249 246 244 245 248 253 256 263 270 273 275 279 285 297 308 312 311 306 300
247 250 255 258 258 249 249 245 247 247 245 244 243 244 243 235 234 232 241 243 244 252 254 254 251 247 247 247 250 254 259 264 267 270 272 276 284 294 296 294 300 302 295
250 248 248 251 254 257 255 250 249 250 250 249 246 244 242 240 236 236 242 246 250 254 255 255 254 252 249 248 250 255 259 263 267 270 270 271 279 283 289 294 298 298 295
256 252 250 247 248 252 254 253 256 254 248 250 254 245 240 237 237 244 246 248 251 256 255 253 252 253 252 251 250 251 256 261 265 268 270 271 274 283 289 290 291 293 293
260 255 252 252 249 248 250 252 253 255 255 254 253 251 247 240 237 236 246 246 250 253 256 255 254 253 254 254 254 253 253 257 261 265 270 272 273 277 285 288 284 280 280
265 260 254 251 250 251 251 251 250 251 254 254 248 242 239 242 241 237 238 242 248 252 255 258 257 256 256 255 256 257 257 257 259 262 265 266 267 270 278 284 282 275 275
272 267 257 254 252 248 250 252 251 250 249 251 247 242 240 237 236 241 234 238 243 249 253 257 261 262 260 259 258 261 261 258 257 260 263 265 264 266 272 278 279 272 269
271 269 265 256 251 248 248 250 251 251 251 249 250 246 241 245 222 234 240 239 242 245 254 257 260 263 264 262 263 261 262 261 262 260 261 263 264 264 268 273 275 267 264
272 271 268 257 253 250 248 247 250 246 247 244 243 246 246 243 245 241 237 237 242 247 252 257 260 261 265 264 263 261 258 254 257 262 261 260 263 264 264 267 270 263 261
279 274 270 266 256 250 249 248 246 246 244 246 244 241 242 237 234 233 240 243 242 251 249 258 260 261 266 266 263 262 261 257 261 266 263 262 260 262 263 263 263 264 260
277 278 275 270 263 254 252 249 250 249 245 244 245 246 246 246 244 244 246 245 245 251 254 253 254 268 261 265 269 270 263 259 262 268 268 265 264 262 261 262 261 259 259
277 277 279 275 266 259 254 254 252 251 250 247 247 246 247 247 246 244 243 244 239 247 246 249 255 260 264 262 274 266 270 261 260 261 267 269 263 262 262 261 260 258 259
280 280 278 277 270 260 255 258 255 253 251 248 249 248 248 249 249 248 246 244 245 238 249 247 256 259 262 264 268 267 267 267 262 257 259 263 264 260 261 262 260 258 259
291 285 277 275 271 259 258 258 257 254 252 248 246 248 248 248 248 250 248 249 249 250 245 252 256 261 265 265 263 269 261 267 263 265 259 254 263 262 260 259 259 260 262
294 291 290 285 273 261 257 260 256 254 254 251 246 245 248 251 251 248 249 248 251 252 252 257 256 261 266 271 267 270 262 267 261 259 263 254 258 262 260 256 255 261 263
283 285 291 288 277 267 258 258 252 253 252 251 249 246 247 249 247 247 248 249 248 254 257 259 262 265 263 270 264 266 269 262 263 265 267 258 253 252 255 253 254 259 265
289 288 291 281 275 262 262 253 252 255 251 249 247 248 246 245 246 246 244 245 247 248 254 257 257 264 272 262 271 259 265 270 262 261 265 260 260 258 252 254 258 254 256
298 288 295 281 283 257 246 259 256 246 243 244 244 246 246 246 244 244 246 242 247 249 250 255 258 265 268 263 266 267 268 265 271 260 264 267 264 256 259 261 256 258 255
307 297 284 278 271 268 265 256 257 256 251 248 247 247 246 246 249 252 258 257 252 249 251 253 260 259 256 258 268 264 271 274 269 264 265 268 265 270 269 268 258 254 260
300 299 291 279 266 264 257 252 253 257 255 253 253 249 247 250 251 257 257 258 258 260 259 256 260 255 252 261 259 262 263 271 269 271 269 270 278 275 268 267 269 271 269
303 302 294 281 278 275 269 266 263 262 259 255 252 251 250 250 257 259 257 253 258 261 261 262 263 265 267 273 262 265 265 267 268 267 271 277 282 277 272 277 283 279 282
322 311 296 287 283 274 270 268 263 260 260 258 258 254 252 253 252 258 262 258 257 254 256 258 256 260 258 264 260 257 260 271 269 275 267 266 272 275 277 277 280 276 279
339 307 296 304 305 298 287 275 266 265 259 257 254 256 258 263 264 261 259 248 247 260 266 262 255 254 254 250 251 251 245 254 267 260 259 258 265 268 270 271 271 272 273
353 344 335 316 308 305 309 303 276 257 243 239 239 244 250 251 247 250 243 255 258 249 232 230 238 233 238 239 249 245 246 250 254 260 257 259 266 272 282 278 275 275 275